User: anonymous   Login
Location: Unspecified
(0.0000°N, 0.0000°E)
Time: 14:00:33
(UTC+00:00)
Language:

CASSIOPE - Orbit

View from above orbital plane
View from above orbital plane
View from above satellite
View from above satellite

Ground track
Ground track

The orbit data is extracted from the following two-line orbital elements,

1 39265U 13055A   18050.87957536 +.00003589 +00000-0 +10541-3 0  9992
2 39265 080.9699 118.3949 0679076 254.9783 097.5325 14.24743290226766
Epoch (UTC): 19 February 2018 21:06:35
Eccentricity: 0.0679076
inclination: 80.9699°
perigee height: 321 km
apogee height: 1297 km
right ascension of ascending node: 118.3949°
argument of perigee: 254.9783°
revolutions per day: 14.24743290
mean anomaly at epoch: 97.5325°
orbit number at epoch: 22676

The dashed part of the orbit path shows where the satellite is in the earth's shadow,  

DLR